SV2GWY Weather Reports


time (UTC)temp
F
wind
direction
speed
knots
gust
knots
rain 1hr
in
rain 24hr
in
rain mn
in
humidity
%
barometer
mb
20260504021010 40 164 0.9 2.6 0.00 0.02 0.00 80 1019.9
20260504020512 40 113 0.9 2.6 0.00 0.02 0.00 79 1019.8
20260504020020 41 165 0.9 1.7 0.00 0.02 0.00 79 1019.8
20260504020011 41 165 0.9 1.7 0.00 0.02 0.00 79 1019.9
20260504015512 41 218 0.0 1.7 0.00 0.02 0.00 80 1019.8
20260504015021 40 248 0.0 2.6 0.00 0.02 0.00 80 1019.8
20260504014521 41 144 0.9 3.5 0.00 0.02 0.00 79 1019.9
20260504014511 41 144 0.9 3.5 0.00 0.02 0.00 79 1020.0
20260504014011 41 195 1.7 3.5 0.00 0.02 0.00 78 1019.9
20260504013510 42 155 0.0 1.7 0.00 0.02 0.00 78 1019.8
20260504013020 42 220 0.0 1.7 0.00 0.02 0.00 77 1019.8
20260504013012 42 220 0.0 1.7 0.00 0.02 0.00 77 1019.9
20260504012510 42 230 0.0 2.6 0.00 0.02 0.00 77 1019.8
20260504012010 42 185 0.9 2.6 0.00 0.02 0.00 77 1019.8
20260504011520 42 153 0.9 2.6 0.00 0.02 0.00 77 1019.8
20260504011511 42 153 0.0 2.6 0.00 0.02 0.00 77 1019.9
20260504011010 42 126 0.0 2.6 0.00 0.02 0.00 77 1019.6
20260504010511 41 155 0.9 3.5 0.00 0.02 0.00 77 1019.7
20260504010020 41 227 0.9 3.5 0.00 0.02 0.00 78 1019.7
20260504010011 41 227 0.0 3.5 0.00 0.02 0.00 78 1019.7
20260504005521 41 156 0.9 2.6 0.00 0.02 0.00 78 1019.7
20260504005011 42 202 0.9 2.6 0.00 0.02 0.00 78 1019.6
20260504004521 42 226 0.0 1.7 0.00 0.02 0.00 78 1019.7
20260504004514 42 226 0.0 1.7 0.00 0.02 0.00 78 1019.8
20260504004011 41 231 0.0 1.7 0.00 0.02 0.00 79 1019.7
20260504003511 41 230 0.9 2.6 0.00 0.02 0.00 79 1019.7
20260504003022 41 119 0.9 3.5 0.00 0.02 0.00 80 1019.7
20260504003011 41 119 0.0 3.5 0.00 0.02 0.00 80 1019.7
20260504002511 41 269 0.9 2.6 0.00 0.02 0.00 81 1019.7
20260504002011 41 153 0.0 1.7 0.00 0.02 0.00 81 1019.7
20260504001531 41 143 0.0 2.6 0.00 0.02 0.00 82 1019.8
20260504001521 41 143 0.0 2.6 0.00 0.02 0.00 82 1019.8
20260504001012 41 238 0.0 2.6 0.00 0.05 0.00 81 1019.8
20260504000512 42 116 0.9 1.7 0.00 0.05 0.00 81 1019.7
20260504000020 42 225 0.0 2.6 0.00 0.05 0.00 81 1019.8
20260504000011 42 225 0.0 2.6 0.00 0.05 0.00 81 1019.8
20260503235522 42 157 0.0 2.6 0.00 0.05 0.00 82 1019.7
20260503235011 42 217 0.0 1.7 0.00 0.05 0.00 82 1019.7
20260503234520 42 148 0.0 0.0 0.00 0.05 0.00 81 1019.7
20260503234511 42 148 0.0 0.0 0.00 0.05 0.00 81 1019.8
20260503234011 42 150 0.0 0.0 0.00 0.05 0.00 82 1019.7
20260503233511 42 234 0.0 0.9 0.00 0.05 0.00 82 1019.7
20260503233021 42 109 0.0 0.0 0.00 0.05 0.00 82 1019.8
20260503233017 42 109 0.0 0.0 0.00 0.05 0.00 82 1019.8
20260503232512 43 155 0.0 0.9 0.00 0.05 0.00 81 1019.9
20260503232013 43 169 0.0 0.9 0.00 0.05 0.00 80 1019.9
20260503231522 44 139 0.0 0.0 0.00 0.05 0.00 80 1019.8
20260503231511 44 139 0.0 0.0 0.00 0.05 0.00 80 1019.9
20260503231012 44 139 0.0 0.9 0.00 0.08 0.00 80 1019.8
20260503230513 44 139 0.0 0.9 0.00 0.08 0.00 79 1019.8
20260503230033 45 4 0.0 0.9 0.00 0.08 0.00 79 1019.9
20260503230025 45 4 0.0 0.9 0.00 0.08 0.00 79 1019.8
20260503225513 45 267 0.0 0.9 0.00 0.08 0.00 79 1019.8
20260503225012 45 257 0.0 0.9 0.00 0.08 0.00 78 1019.7
20260503224521 45 262 0.0 1.7 0.00 0.08 0.00 78 1019.5
20260503224513 45 262 0.0 1.7 0.00 0.08 0.00 78 1019.5
20260503224011 45 264 0.0 3.5 0.00 0.08 0.00 78 1019.5
20260503223511 45 232 0.9 2.6 0.00 0.08 0.00 79 1019.5
20260503223022 45 167 0.9 2.6 0.00 0.08 0.00 79 1019.5
20260503223012 45 165 0.0 2.6 0.00 0.08 0.00 79 1019.6
20260503222513 45 80 0.9 2.6 0.00 0.08 0.00 78 1019.4
20260503222013 46 146 0.0 3.5 0.00 0.08 0.00 78 1019.4
20260503221522 46 148 0.0 1.7 0.00 0.08 0.00 77 1019.5
20260503221511 46 148 0.0 1.7 0.00 0.08 0.00 77 1019.6
20260503221013 47 226 0.0 0.9 0.00 0.08 0.00 77 1019.5
20260503220513 47 165 0.0 0.9 0.00 0.08 0.00 76 1019.5
20260503220022 47 141 0.0 0.9 0.00 0.08 0.00 76 1019.5
20260503220012 47 141 0.0 0.9 0.00 0.08 0.00 76 1019.6
20260503215512 48 167 0.0 0.0 0.00 0.08 0.00 76 1019.6
20260503215023 48 200 0.0 0.9 0.00 0.08 0.00 76 1019.4
20260503214532 48 221 0.0 0.9 0.00 0.08 0.00 76 1019.4
20260503214012 48 146 0.0 0.9 0.00 0.08 0.00 75 1019.4
20260503213523 48 133 0.0 0.9 0.00 0.08 0.00 75 1019.4
20260503213021 48 152 0.0 0.9 0.00 0.08 0.00 75 1019.4
20260503213012 48 152 0.0 0.9 0.00 0.08 0.00 75 1019.5
20260503212512 48 248 0.0 0.9 0.00 0.08 0.00 75 1019.4
20260503212012 49 262 0.0 0.9 0.00 0.08 0.00 75 1019.5
20260503211532 49 250 0.0 0.9 0.00 0.08 0.00 74 1019.5
20260503211511 49 250 0.0 0.9 0.00 0.08 0.00 74 1019.5
20260503211023 49 250 0.0 0.9 0.00 0.08 0.00 73 1019.5
20260503210512 49 186 0.0 0.9 0.00 0.08 0.00 72 1019.5
20260503210022 50 180 0.0 0.0 0.00 0.08 0.00 72 1019.5
20260503210012 50 180 0.0 0.0 0.00 0.08 0.00 72 1019.5
20260503205523 50 170 0.0 0.0 0.00 0.08 0.00 71 1019.5
20260503205012 50 159 0.0 0.0 0.00 0.08 0.00 71 1019.4
20260503204521 50 159 0.0 0.0 0.00 0.08 0.00 72 1019.5
20260503204513 50 159 0.0 0.0 0.00 0.08 0.00 72 1019.6
20260503204013 50 161 0.0 1.7 0.00 0.08 0.00 72 1019.5
20260503203512 49 177 0.0 2.6 0.00 0.08 0.00 72 1019.5
20260503203033 49 215 0.9 2.6 0.00 0.08 0.00 74 1019.5
20260503203014 49 215 0.0 2.6 0.00 0.08 0.00 74 1019.5
20260503202512 48 171 1.7 2.6 0.00 0.08 0.00 74 1019.5
20260503202012 48 184 0.0 1.7 0.00 0.08 0.00 75 1019.4
20260503201522 48 150 0.9 2.6 0.00 0.08 0.00 75 1019.6
20260503201513 48 150 0.0 2.6 0.00 0.08 0.00 75 1019.6
20260503201012 48 207 0.9 3.5 0.00 0.08 0.00 75 1019.6
20260503200512 47 210 0.9 3.5 0.00 0.08 0.00 75 1019.6
20260503200022 47 141 0.9 3.5 0.00 0.08 0.00 75 1019.5
20260503200013 47 141 0.0 3.5 0.00 0.08 0.00 75 1019.6
20260503195524 47 229 0.9 3.5 0.00 0.08 0.00 75 1019.5
20260503195013 48 157 0.0 1.7 0.00 0.08 0.00 74 1019.5
20260503194523 49 235 0.0 1.7 0.00 0.08 0.00 73 1019.6
20260503194512 49 199 0.0 1.7 0.00 0.08 0.00 73 1019.7
20260503194025 49 225 0.0 1.7 0.00 0.08 0.00 72 1019.8
20260503193512 49 142 0.0 0.9 0.00 0.08 0.00 72 1019.6
20260503193023 49 135 0.0 1.7 0.00 0.08 0.00 72 1019.7
20260503192513 49 154 0.9 1.7 0.00 0.08 0.00 72 1019.5
20260503192014 49 176 0.0 1.7 0.00 0.08 0.00 73 1019.5
20260503191531 49 185 0.0 1.7 0.00 0.08 0.00 73 1019.6
20260503191524 49 185 0.9 1.7 0.00 0.08 0.00 73 1019.5
20260503191014 50 219 0.9 1.7 0.00 0.08 0.00 71 1019.5
20260503190514 50 191 0.0 1.7 0.00 0.08 0.00 70 1019.5
20260503190034 51 160 0.9 3.5 0.00 0.08 0.00 70 1019.5
20260503190024 51 160 0.0 3.5 0.00 0.08 0.00 70 1019.6
20260503185514 52 146 0.9 3.5 0.00 0.08 0.00 68 1019.3
20260503185014 52 174 0.9 2.6 0.00 0.08 0.00 67 1019.3
20260503184522 52 255 0.0 0.9 0.00 0.08 0.00 67 1019.2
20260503184513 52 255 0.0 0.9 0.00 0.08 0.00 67 1019.3
20260503184012 52 136 0.0 0.9 0.00 0.08 0.00 67 1019.1
20260503183514 52 136 0.0 0.9 0.00 0.08 0.00 67 1019.1
20260503183023 53 136 0.0 0.9 0.00 0.08 0.00 66 1019.0
20260503183012 53 136 0.0 0.9 0.00 0.08 0.00 66 1019.1
20260503182513 53 135 0.0 0.9 0.00 0.08 0.00 66 1018.8
20260503182014 53 253 0.9 1.7 0.00 0.08 0.00 66 1018.8
20260503181535 53 258 0.0 1.7 0.00 0.08 0.00 66 1018.7
20260503181513 53 258 0.0 1.7 0.00 0.08 0.00 66 1018.9
20260503181024 53 257 0.0 1.7 0.00 0.08 0.00 65 1018.6
20260503180526 53 132 0.0 1.7 0.00 0.08 0.00 65 1018.6
20260503180024 53 162 0.9 3.5 0.00 0.08 0.00 61 1018.6
20260503180013 53 162 0.0 3.5 0.00 0.08 0.00 61 1018.8
20260503175513 53 207 0.9 3.5 0.00 0.08 0.00 62 1018.5
20260503175014 53 205 0.9 4.3 0.00 0.08 0.00 63 1018.5
20260503174525 54 165 0.9 2.6 0.00 0.08 0.00 60 1018.4
20260503174513 54 165 0.0 2.6 0.00 0.08 0.00 60 1018.5
20260503174014 54 172 0.9 2.6 0.00 0.08 0.00 60 1018.4
20260503173514 55 240 0.9 2.6 0.00 0.08 0.00 58 1018.4
20260503173023 56 211 0.9 1.7 0.00 0.08 0.00 55 1018.2
20260503173013 56 211 0.0 1.7 0.00 0.08 0.00 55 1018.3
20260503172513 56 207 0.0 2.6 0.00 0.08 0.00 55 1018.1
20260503172014 56 236 0.9 2.6 0.00 0.08 0.00 53 1018.0
20260503171522 57 153 0.0 1.7 0.00 0.08 0.00 52 1018.0
20260503171513 57 153 0.0 1.7 0.00 0.08 0.00 52 1018.2
20260503171014 57 153 0.9 1.7 0.00 0.08 0.00 52 1017.9
20260503170526 58 176 0.9 1.7 0.00 0.08 0.00 49 1017.8
20260503151014 62 313 0.9 3.5 0.00 0.08 0.00 34 1017.4
20260503150514 62 20 0.9 5.2 0.00 0.08 0.00 32 1017.5
20260503131015 63 314 2.6 6.1 0.00 0.08 0.08 33 1018.3
20260503130515 63 293 1.7 7.0 0.00 0.08 0.08 31 1018.3
20260503110526 60 311 3.5 7.8 0.00 0.08 0.08 42 1019.1
20260503081526 56 41 0.9 1.7 0.00 0.08 0.08 45 1019.9
20260503081520 56 41 0.0 1.7 0.00 0.08 0.08 45 1020.0
20260503081016 56 355 0.9 2.6 0.00 0.08 0.08 44 1019.9
20260503080527 56 60 0.9 5.2 0.00 0.08 0.08 43 1019.8
20260503072518 55 57 4.3 7.0 0.00 0.08 0.08 45 1019.9
20260503072018 55 37 3.5 6.1 0.00 0.08 0.08 49 1019.8
20260503071537 55 91 0.9 5.2 0.00 0.08 0.08 63 1019.7
20260503071516 55 91 0.9 5.2 0.00 0.08 0.08 63 1019.8
20260503071016 55 111 2.6 5.2 0.00 0.08 0.08 54 1019.7
20260503070517 53 64 2.6 5.2 0.00 0.08 0.08 55 1019.7
20260503055017 51 258 0.9 3.5 0.00 0.08 0.08 74 1019.3
20260503054526 51 309 0.9 2.6 0.00 0.08 0.08 74 1019.4
20260503054517 51 309 0.9 2.6 0.00 0.08 0.08 74 1019.4
20260503054017 50 331 0.9 5.2 0.00 0.08 0.08 75 1019.4
20260503053517 49 290 3.5 5.2 0.00 0.08 0.08 74 1019.4
20260503053026 50 326 0.9 1.7 0.00 0.08 0.08 77 1019.4
20260503053020 50 326 0.0 1.7 0.00 0.08 0.08 77 1019.4
20260503052517 49 186 0.0 0.0 0.01 0.08 0.08 77 1019.2
20260503052017 49 186 0.0 0.9 0.01 0.08 0.08 77 1019.0
20260503051527 49 157 0.0 0.9 0.01 0.08 0.08 78 1019.1
20260503051517 49 157 0.0 0.9 0.01 0.08 0.08 78 1019.2
20260503051017 49 111 0.0 1.7 0.02 0.08 0.08 80 1019.0
20260503050517 49 116 0.0 0.9 0.02 0.08 0.08 81 1018.9
20260503050038 49 63 0.0 0.9 0.02 0.08 0.08 79 1018.8
20260503050017 49 63 0.0 0.9 0.02 0.08 0.08 79 1018.9
20260503045517 49 4 0.0 0.9 0.02 0.08 0.08 81 1018.8
20260503045017 48 41 0.0 0.9 0.02 0.08 0.08 83 1018.8
20260503044527 48 41 0.0 2.6 0.02 0.08 0.08 82 1018.8
20260503044517 48 41 0.0 2.6 0.02 0.08 0.08 82 1018.9
20260503044017 48 42 0.9 2.6 0.02 0.08 0.08 81 1018.7
20260503043518 48 12 0.0 1.7 0.02 0.08 0.08 80 1018.7
20260503043026 48 45 0.9 5.2 0.02 0.08 0.08 79 1018.6
20260503043018 48 45 0.0 5.2 0.02 0.08 0.08 79 1018.7
20260503042517 48 291 0.9 7.8 0.01 0.07 0.07 77 1018.6
20260503042017 48 289 3.5 7.8 0.01 0.07 0.07 75 1018.5
20260503041527 47 297 1.7 6.1 0.01 0.07 0.07 84 1018.8
20260503041518 47 297 0.9 6.1 0.01 0.07 0.07 84 1018.9
20260503041017 46 70 0.0 0.0 0.00 0.06 0.06 88 1018.6
20260503040518 46 70 0.0 0.0 0.00 0.06 0.06 89 1018.6
20260503040027 45 142 0.0 0.0 0.00 0.06 0.06 89 1018.5
20260503040017 45 142 0.0 0.0 0.00 0.06 0.06 89 1018.7
20260503035517 45 127 0.0 0.0 0.00 0.06 0.06 89 1018.3
20260503035017 45 225 0.0 0.9 0.00 0.06 0.06 89 1018.3
20260503034527 44 137 0.0 0.9 0.00 0.06 0.06 89 1018.3
20260503034518 44 137 0.0 0.9 0.00 0.06 0.06 89 1018.4
20260503034017 44 146 0.0 1.7 0.00 0.06 0.06 88 1018.2
20260503033518 44 147 0.0 1.7 0.00 0.06 0.06 88 1018.2
20260503033038 44 199 0.0 1.7 0.00 0.06 0.06 88 1018.2
20260503033018 44 199 0.0 1.7 0.00 0.06 0.06 88 1018.3
20260503032518 44 224 0.0 0.0 0.00 0.06 0.06 89 1018.1
20260503032018 44 222 0.0 0.9 0.00 0.06 0.06 88 1018.1
20260503031527 44 160 0.0 0.9 0.00 0.06 0.06 88 1018.1
20260503031518 44 160 0.0 0.9 0.00 0.06 0.06 88 1018.2
20260503030940 44 161 0.0 1.7 0.00 0.06 0.06 88 1018.1
20260503030440 44 161 0.0 1.7 0.00 0.06 0.06 88 1018.1
20260503030039 44 160 0.0 0.9 0.00 0.06 0.06 88 1018.3
20260503025949 44 169 0.0 0.9 0.00 0.06 0.06 88 1018.3
20260503025439 44 202 0.0 1.7 0.00 0.06 0.06 88 1018.3
20260503024939 44 198 0.0 1.7 0.00 0.06 0.06 87 1018.4
20260503024540 44 199 0.0 1.7 0.00 0.06 0.06 87 1018.6
20260503024449 44 199 0.0 1.7 0.00 0.06 0.06 87 1018.5
20260503023939 44 155 0.0 0.9 0.00 0.06 0.06 87 1018.5
20260503023451 44 130 0.0 0.9 0.00 0.06 0.06 87 1018.6
20260503023043 44 129 0.0 0.9 0.00 0.06 0.06 88 1018.7
20260503023001 44 117 0.0 0.9 0.00 0.06 0.06 88 1018.5
20260503022440 44 116 0.0 0.9 0.00 0.06 0.06 89 1018.4
20260503021940 44 117 0.0 1.7 0.00 0.06 0.06 89 1018.4
20260503021542 44 117 0.0 1.7 0.00 0.06 0.06 89 1018.4
20260503021449 44 117 0.9 1.7 0.00 0.06 0.06 89 1018.3